Time,TemperatureF,DewpointF,PressureIn,WindDirection,WindDirectionDegrees,WindSpeedMPH,WindSpeedGustMPH,Humidity,HourlyPrecipIn,Conditions,Clouds,dailyrainin,SoftwareType,DateUTC
2013-10-21 00:23:00,53.0,43.0,29.95,SE,137,0.0,-999.0,70,-99.99,,,-99.99,,2013-10-21 05:23:00,
2013-10-21 00:43:00,54.0,44.0,29.95,SE,134,0.0,-999.0,70,-99.99,,,-99.99,,2013-10-21 05:43:00,
2013-10-21 00:52:00,53.0,43.0,29.95,SE,134,0.0,-999.0,70,-99.99,,,-99.99,,2013-10-21 05:52:00,
2013-10-21 01:22:00,53.0,44.0,29.95,SE,134,0.0,-999.0,72,-99.99,,,-99.99,,2013-10-21 06:22:00,
2013-10-21 01:42:00,53.0,45.0,29.95,SE,134,0.0,-999.0,73,-99.99,,,-99.99,,2013-10-21 06:42:00,
2013-10-21 01:52:00,52.0,44.0,29.94,SE,136,0.0,-999.0,75,-99.99,,,-99.99,,2013-10-21 06:52:00,
2013-10-21 02:22:00,51.0,44.0,29.95,SE,141,0.0,-999.0,77,-99.99,,,-99.99,,2013-10-21 07:22:00,
2013-10-21 02:42:00,51.0,44.0,29.95,SE,144,0.0,-999.0,77,-99.99,,,-99.99,,2013-10-21 07:42:00,
2013-10-21 02:52:00,51.0,44.0,29.95,SE,144,0.0,-999.0,78,-99.99,,,-99.99,,2013-10-21 07:52:00,
2013-10-21 03:21:00,50.0,44.0,29.95,SE,144,0.0,-999.0,80,-99.99,,,-99.99,,2013-10-21 08:21:00,
2013-10-21 03:52:00,50.0,44.0,29.96,SE,144,0.0,-999.0,80,-99.99,,,-99.99,,2013-10-21 08:52:00,
2013-10-21 04:22:00,51.0,45.0,29.96,SE,145,0.0,-999.0,79,-99.99,,,-99.99,,2013-10-21 09:22:00,
2013-10-21 04:53:00,51.0,45.0,29.96,SE,145,0.0,-999.0,79,-99.99,,,-99.99,,2013-10-21 09:53:00,
2013-10-21 05:23:00,51.0,45.0,29.96,SE,145,0.0,-999.0,81,-99.99,,,-99.99,,2013-10-21 10:23:00,
2013-10-21 05:42:00,51.0,45.0,29.96,SE,145,0.0,-999.0,81,-99.99,,,-99.99,,2013-10-21 10:42:00,
2013-10-21 05:52:00,51.0,45.0,29.97,SE,145,0.0,-999.0,81,-99.99,,,-99.99,,2013-10-21 10:52:00,
2013-10-21 06:22:00,51.0,46.0,29.97,NW,313,0.0,-999.0,84,-99.99,,,-99.99,,2013-10-21 11:22:00,
2013-10-21 06:42:00,51.0,46.0,29.97,North,349,0.0,-999.0,82,-99.99,,,-99.99,,2013-10-21 11:42:00,
2013-10-21 06:52:00,52.0,46.0,29.98,NNW,343,0.0,-999.0,79,-99.99,,,-99.99,,2013-10-21 11:52:00,
2013-10-21 07:22:00,51.0,45.0,30.00,NNW,336,0.0,-999.0,80,-99.99,,,-99.99,,2013-10-21 12:22:00,
2013-10-21 07:42:00,51.0,45.0,30.00,NNW,336,0.0,-999.0,81,-99.99,,,-99.99,,2013-10-21 12:42:00,
2013-10-21 07:52:00,51.0,45.0,30.00,NNW,336,0.0,-999.0,81,-99.99,,,-99.99,,2013-10-21 12:52:00,
2013-10-21 08:11:00,51.0,46.0,30.00,NNW,336,0.0,-999.0,83,-99.99,,,-99.99,,2013-10-21 13:11:00,
2013-10-21 08:22:00,51.0,46.0,30.02,WNW,285,0.0,-999.0,84,-99.99,,,-99.99,,2013-10-21 13:22:00,
2013-10-21 08:42:00,51.0,46.0,30.02,NNW,344,0.0,-999.0,84,-99.99,,,-99.99,,2013-10-21 13:42:00,
2013-10-21 08:52:00,51.0,46.0,30.05,NNW,344,0.0,-999.0,82,-99.99,,,-99.99,,2013-10-21 13:52:00,
2013-10-21 09:22:00,50.0,46.0,30.06,ENE,59,0.0,-999.0,85,-99.99,,,-99.99,,2013-10-21 14:22:00,
2013-10-21 09:42:00,50.0,46.0,30.06,ENE,68,0.0,-999.0,85,-99.99,,,-99.99,,2013-10-21 14:42:00,
2013-10-21 09:52:00,50.0,46.0,30.08,North,360,0.0,-999.0,85,-99.99,,,-99.99,,2013-10-21 14:52:00,
2013-10-21 10:21:00,51.0,45.0,30.09,NNW,343,0.0,-999.0,81,-99.99,,,-99.99,,2013-10-21 15:21:00,
2013-10-21 10:53:00,52.0,45.0,30.10,North,6,0.0,-999.0,76,-99.99,,,-99.99,,2013-10-21 15:53:00,
2013-10-21 11:23:00,52.0,44.0,30.11,WNW,285,0.0,-999.0,74,-99.99,,,-99.99,,2013-10-21 16:23:00,
2013-10-21 11:43:00,52.0,44.0,30.11,North,353,0.0,-999.0,73,-99.99,,,-99.99,,2013-10-21 16:43:00,
2013-10-21 11:53:00,52.0,42.0,30.11,NW,305,0.0,-999.0,69,-99.99,,,-99.99,,2013-10-21 16:53:00,
2013-10-21 12:22:00,53.0,38.0,30.11,NNW,332,1.0,-999.0,57,-99.99,,,-99.99,,2013-10-21 17:22:00,
2013-10-21 12:43:00,53.0,40.0,30.11,ENE,75,1.0,-999.0,61,-99.99,,,-99.99,,2013-10-21 17:43:00,
2013-10-21 12:53:00,52.0,40.0,30.11,ENE,75,1.0,-999.0,63,-99.99,,,-99.99,,2013-10-21 17:53:00,
2013-10-21 13:22:00,52.0,39.0,30.10,North,360,0.0,-999.0,61,-99.99,,,-99.99,,2013-10-21 18:22:00,
2013-10-21 13:42:00,52.0,39.0,30.10,NE,51,0.0,-999.0,62,-99.99,,,-99.99,,2013-10-21 18:42:00,
2013-10-21 13:52:00,51.0,39.0,30.10,NW,322,1.0,-999.0,64,-99.99,,,-99.99,,2013-10-21 18:52:00,
2013-10-21 14:22:00,52.0,39.0,30.08,North,354,0.0,-999.0,61,-99.99,,,-99.99,,2013-10-21 19:22:00,
2013-10-21 14:52:00,56.0,40.0,30.07,NW,326,0.0,-999.0,54,-99.99,,,-99.99,,2013-10-21 19:52:00,
2013-10-21 15:22:00,57.0,38.0,30.07,NW,322,0.0,-999.0,48,-99.99,,,-99.99,,2013-10-21 20:22:00,
2013-10-21 15:52:00,58.0,39.0,30.06,North,360,0.0,-999.0,49,-99.99,,,-99.99,,2013-10-21 20:52:00,
2013-10-21 16:22:00,58.0,39.0,30.06,NW,315,0.0,-999.0,49,-99.99,,,-99.99,,2013-10-21 21:22:00,
2013-10-21 16:54:00,58.0,37.0,30.06,North,350,0.0,-999.0,46,-99.99,,,-99.99,,2013-10-21 21:54:00,
2013-10-21 17:23:00,57.0,38.0,30.07,WNW,299,1.0,-999.0,49,-99.99,,,-99.99,,2013-10-21 22:23:00,
2013-10-21 17:53:00,56.0,36.0,30.08,WNW,296,0.0,-999.0,46,-99.99,,,-99.99,,2013-10-21 22:53:00,
2013-10-21 18:22:00,56.0,37.0,30.08,NNW,336,0.0,-999.0,49,-99.99,,,-99.99,,2013-10-21 23:22:00,
2013-10-21 18:53:00,55.0,37.0,30.09,NNW,328,0.0,-999.0,50,-99.99,,,-99.99,,2013-10-21 23:53:00,
2013-10-21 19:22:00,52.0,39.0,30.09,NNW,328,0.0,-999.0,62,-99.99,,,-99.99,,2013-10-22 00:22:00,
2013-10-21 19:53:00,49.0,39.0,30.10,NNW,328,0.0,-999.0,67,-99.99,,,-99.99,,2013-10-22 00:53:00,
2013-10-21 20:22:00,48.0,40.0,30.10,NNW,328,0.0,-999.0,73,-99.99,,,-99.99,,2013-10-22 01:22:00,
2013-10-21 20:52:00,47.0,38.0,30.10,NNW,328,0.0,-999.0,72,-99.99,,,-99.99,,2013-10-22 01:52:00,
2013-10-21 21:22:00,46.0,39.0,30.11,NNW,328,0.0,-999.0,77,-99.99,,,-99.99,,2013-10-22 02:22:00,
2013-10-21 21:52:00,45.0,39.0,30.10,NNW,328,0.0,-999.0,78,-99.99,,,-99.99,,2013-10-22 02:52:00,
2013-10-21 22:22:00,44.0,38.0,30.11,NNW,328,0.0,-999.0,80,-99.99,,,-99.99,,2013-10-22 03:22:00,
2013-10-21 22:55:00,44.0,39.0,30.11,NNW,328,0.0,-999.0,82,-99.99,,,-99.99,,2013-10-22 03:55:00,
2013-10-21 23:13:00,44.0,39.0,30.11,NNW,328,0.0,-999.0,81,-99.99,,,-99.99,,2013-10-22 04:13:00,
2013-10-21 23:24:00,43.0,38.0,30.11,NNW,328,0.0,-999.0,82,-99.99,,,-99.99,,2013-10-22 04:24:00,
2013-10-21 23:54:00,43.0,38.0,30.11,NNW,328,0.0,-999.0,83,-99.99,,,-99.99,,2013-10-22 04:54:00,